[TLELIST] Archives

 

[list_settings.list_name] Current TLEs

April 16th 2010 PST

HST 1 20580U 90037B 10105.14543683 .00000628 00000-0 35269-4 0 5503 2 20580 028.4707 291.4027 0003251 249.3702 110.6503 15.00950798895279 ISS (ZARYA) 1 25544U 98067A 10106.49061343 .00023539 00000-0 15976-3 0 9812 2 25544 051.6468 187.2710 0004409 175.1777 009.4790 15.74834943653753 CXO 1 25867U 99040B 10103.02154830 .00000000 00000-0 10000-3 0 4526 2 25867 066.8224 056.6904 8061987 275.2538 008.2411 00.37815022 6155 ____________________________________________________________________ These 2-Line ...Continue Reading

[list_settings.list_name] Current TLEs

April 15th 2010 PST

HST 1 20580U 90037B 10105.14543683 .00000628 00000-0 35269-4 0 5503 2 20580 028.4707 291.4027 0003251 249.3702 110.6503 15.00950798895279 ISS (ZARYA) 1 25544U 98067A 10105.32821753 .00000871 00000-0 10059-4 0 9757 2 25544 051.6466 193.2487 0004182 175.1461 255.0783 15.74758288653575 CXO 1 25867U 99040B 10105.58333333 .00000496 00000-0 10000-3 0 4514 2 25867 066.8431 056.6338 8063702 275.2437 356.9648 00.37806676 6151 ____________________________________________________________________ These 2-Line ...Continue Reading

[list_settings.list_name] Current TLEs

April 14th 2010 PST

HST 1 20580U 90037B 10101.02283170 .00000605 00000-0 33485-4 0 5488 2 20580 028.4705 318.3135 0003684 204.4380 155.6158 15.00946947894657 ISS (ZARYA) 1 25544U 98067A 10104.31155253 .00007621 00000-0 54973-4 0 9708 2 25544 051.6463 198.4747 0004311 168.5711 254.1810 15.74717808653413 CXO 1 25867U 99040B 10102.95833333 .00000514 00000-0 10000-3 0 4507 2 25867 066.8264 056.7808 8062381 275.2313 359.6168 00.37809612 6142 ____________________________________________________________________ These 2-Line ...Continue Reading

[list_settings.list_name] Current TLEs

April 13th 2010 PST

HST 1 20580U 90037B 10101.02283170 .00000605 00000-0 33485-4 0 5488 2 20580 028.4705 318.3135 0003684 204.4380 155.6158 15.00946947894657 ISS (ZARYA) 1 25544U 98067A 10103.49045115 .00002576 00000-0 21466-4 0 9650 2 25544 051.6478 202.6939 0004549 163.1160 281.7020 15.74666041653288 CXO 1 25867U 99040B 10102.95833333 .00000514 00000-0 10000-3 0 4507 2 25867 066.8264 056.7808 8062381 275.2313 359.6168 00.37809612 6142 ____________________________________________________________________ These 2-Line ...Continue Reading

[list_settings.list_name] Current TLEs

April 12th 2010 PST

HST 1 20580U 90037B 10101.02283170 .00000605 00000-0 33485-4 0 5488 2 20580 028.4705 318.3135 0003684 204.4380 155.6158 15.00946947894657 ISS (ZARYA) 1 25544U 98067A 10102.53575642 .00026451 00000-0 17993-3 0 9597 2 25544 051.6458 207.5948 0004888 162.1720 267.0623 15.74703539653131 CXO 1 25867U 99040B 10102.95833333 .00000514 00000-0 10000-3 0 4507 2 25867 066.8264 056.7808 8062381 275.2313 359.6168 00.37809612 6142 ____________________________________________________________________ These 2-Line ...Continue Reading

[list_settings.list_name] Current TLEs

April 11th 2010 PST

HST 1 20580U 90037B 10101.02283170 .00000605 00000-0 33485-4 0 5488 2 20580 028.4705 318.3135 0003684 204.4380 155.6158 15.00946947894657 ISS (ZARYA) 1 25544U 98067A 10101.52775573 .00026404 00000-0 18004-3 0 9525 2 25544 051.6455 212.7775 0004914 158.4500 312.7417 15.74649467652977 CXO 1 25867U 99040B 10100.33333333 .00000429 00000-0 10000-3 0 4495 2 25867 066.8119 056.8977 8059327 275.2174 002.3069 00.37808310 6135 ____________________________________________________________________ These 2-Line ...Continue Reading

[list_settings.list_name] Current TLEs

April 10th 2010 PST

HST 1 20580U 90037B 10099.02802005 .00000803 00000-0 48665-4 0 5473 2 20580 028.4699 331.3415 0003568 182.8534 177.2105 15.00944909894351 ISS (ZARYA) 1 25544U 98067A 10100.31828582 .00028227 00000-0 19264-3 0 9456 2 25544 051.6454 218.9929 0004699 153.4611 297.0850 15.74588741652785 CXO 1 25867U 99040B 10100.33333333 .00000429 00000-0 10000-3 0 4495 2 25867 066.8119 056.8977 8059327 275.2174 002.3069 00.37808310 6135 ____________________________________________________________________ These 2-Line ...Continue Reading

[list_settings.list_name] Current TLEs

April 9th 2010 PST

HST 1 20580U 90037B 10096.10228843 .00000773 00000-0 46440-4 0 5465 2 20580 028.4699 350.4344 0003568 151.7519 208.3319 15.00940823893917 ISS (ZARYA) 1 25544U 98067A 10099.49339444 .00026141 00000-0 17916-3 0 9383 2 25544 051.6454 223.2341 0004813 153.4163 298.1302 15.74537150652650 CXO 1 25867U 99040B 10100.29166667 .00000427 00000-0 10000-3 0 4481 2 25867 066.8111 056.9005 8059310 275.2161 356.6439 00.37808118 6130 ____________________________________________________________________ These 2-Line ...Continue Reading

[list_settings.list_name] Current TLEs

April 8th 2010 PST

HST 1 20580U 90037B 10096.10228843 .00000773 00000-0 46440-4 0 5465 2 20580 028.4699 350.4344 0003568 151.7519 208.3319 15.00940823893917 ISS (ZARYA) 1 25544U 98067A 10098.47614443 .00023270 00000-0 16029-3 0 9367 2 25544 051.6460 228.4548 0005684 150.1136 291.5580 15.74491608652498 CXO 1 25867U 99040B 10097.66666667 .00000269 00000-0 10000-3 0 4475 2 25867 066.7982 056.9905 8055951 275.2120 359.3226 00.37807176 6122 ____________________________________________________________________ These 2-Line ...Continue Reading

[list_settings.list_name] Current TLEs

April 7th 2010 PST

HST 1 20580U 90037B 10096.10228843 .00000773 00000-0 46440-4 0 5465 2 20580 028.4699 350.4344 0003568 151.7519 208.3319 15.00940823893917 ISS (ZARYA) 1 25544U 98067A 10097.51761082 .00023666 00000-0 16324-3 0 9281 2 25544 051.6462 233.3803 0005710 146.9412 258.0251 15.74448566652341 CXO 1 25867U 99040B 10097.66666667 .00000269 00000-0 10000-3 0 4475 2 25867 066.7982 056.9905 8055951 275.2120 359.3226 00.37807176 6122 ____________________________________________________________________ These 2-Line ...Continue Reading
  • This mailing list is a public mailing list - anyone may join or leave, at any time.
  • This mailing list is announce-only.

International Space Station (ISS) / Hubble Space Telescope (HST) / Chandra X-Ray Observatory Orbital Data via EMAIL

Privacy Policy:

Private list